Regional Weather Roundup
Issued by NWS Northern Indiana

Home | Current Version | Previous Version | Text Only | Print | Product List | Glossary Off
Versions: 1 2 3 4 5 6 7 8 9 10 11 12 13 14 15 16 17 18 19 20 21 22 23 24 25 26 27 28 29 30 31 32 33 34 35 36 37 38 39 40 41 42 43 44 45 46 47 48 49 50

000
ASUS43 KIWX 231800
RWRIWX

KIWX WEATHER ROUNDUP
NATIONAL WEATHER SERVICE NORTHERN INDIANA
100 PM EST TUE JAN 23 2018

NOTE: "FAIR" INDICATES FEW OR NO CLOUDS BELOW 12,000 FEET WITH NO
SIGNIFICANT WEATHER AND/OR OBSTRUCTIONS TO VISIBILITY.

* THESE STATIONS ARE NOT UNDER NWS QUALITY CONTROL. THEY ALSO MAY NOT
  REPORT WEATHER SUCH AS PRECIPITATION OR FOG.

INZ001>027-231900-
NORTHERN INDIANA

CITY           SKY/WX    TMP DP  RH WIND       PRES   REMARKS
GARY*          CLOUDY    32  28  86 W14G28    29.84F WCI  22
MICHIGAN CITY* CLOUDY    32  30  93 NW10G20   29.82R WCI  24
KNOX*          CLOUDY    32  28  86 NW12G18   29.80R WCI  23
SOUTH BEND     CLOUDY    31  26  82 NW17G31   29.78R WCI  19
6HR MIN TEMP:  31; 6HR MAX TEMP:  35; 6HR PCP:  0.12;

ELKHART*       CLOUDY    32  28  86 W18       29.76R WCI  20
GOSHEN         CLOUDY    33  28  81 W15G26    29.75R WCI  23
6HR MIN TEMP:  33; 6HR MAX TEMP:  36; 6HR PCP:  0.04;

MONTICELLO*    CLOUDY    33  29  86 W18       29.83R WCI  22
6HR MIN TEMP:  33; 6HR MAX TEMP:  35;

FORT WAYNE     CLOUDY    37  32  82 W17G29    29.74R
6HR MIN TEMP:  36; 6HR MAX TEMP:  38; 6HR PCP:  0.01;

PERU/GRISSOM   CLOUDY    34  34 100 W16       29.79R WCI  24
6HR MIN TEMP:  34; 6HR MAX TEMP:  36; 6HR PCP:  0.01;


$$
INZ028>050-231900-
CENTRAL INDIANA

CITY           SKY/WX    TMP DP  RH WIND       PRES   REMARKS
LAFAYETTE      CLOUDY    35  30  82 NW12      29.85R WCI  27
6HR MIN TEMP:  34; 6HR MAX TEMP:  36;

MUNCIE*        CLOUDY    37  33  85 W16       29.79R FOG
6HR MIN TEMP:  36; 6HR MAX TEMP:  38; 6HR PCP: TRACE;

INDIANAPOLIS   DRIZZLE   36  35  96 W16       29.85R FOG
6HR MIN TEMP:  34; 6HR MAX TEMP:  36; 6HR PCP: TRACE;


$$
MIZ043>046-050>051-056>058-064>065-071>073-077>080-231900-
SOUTHWEST LOWER MICHIGAN

CITY           SKY/WX    TMP DP  RH WIND       PRES   REMARKS
BATTLE CREEK   CLOUDY    32  27  81 W22G31    29.66R WCI  19
6HR MIN TEMP:  32; 6HR MAX TEMP:  37; 6HR PCP:  0.02;

BENTON HARBOR  CLOUDY    32  26  78 NW13G25   29.77R WCI  22
6HR MIN TEMP:  31; 6HR MAX TEMP:  34; 6HR PCP:  0.07;

HOLLAND        FLURRIES  31  26  82 NW17G31   29.72R WCI  19
6HR MIN TEMP:  31; 6HR MAX TEMP:  34; 6HR PCP:  0.01;

GRAND RAPIDS   CLOUDY    30  25  81 NW21G30   29.66R WCI  17
6HR MIN TEMP:  30; 6HR MAX TEMP:  36; 6HR PCP: TRACE;

KALAMAZOO      CLOUDY    33  26  75 W17G29    29.70R WCI  22
6HR MIN TEMP:  33; 6HR MAX TEMP:  37; 6HR PCP:  0.01;


$$
OHZ001>008-015>018-024>025-231900-
NORTHWEST OHIO

CITY           SKY/WX    TMP DP  RH WIND       PRES   REMARKS
DEFIANCE       CLOUDY    36  29  75 W13G25    29.70R
6HR MIN TEMP:  35; 6HR MAX TEMP:  38;

FINDLAY        CLOUDY    38  31  76 SW18G30   29.68S
6HR MIN TEMP:  37; 6HR MAX TEMP:  39; 6HR PCP:  0.01;

TOLEDO EXPRESS CLOUDY    38  35  89 W24G31    29.64R
6HR MIN TEMP:  36; 6HR MAX TEMP:  40; 6HR PCP: TRACE;

TOLEDO METCALF CLOUDY    39  33  79 SW20G29   29.65R
6HR MIN TEMP:  36; 6HR MAX TEMP:  41;

LIMA           CLOUDY    36  33  89 SW22G36   29.72
6HR MIN TEMP:  36; 6HR MAX TEMP:  38;


$$
AND FOR LAKE MICHIGAN COASTAL AND OPEN LAKE BUOY OBSERVATIONS

STATION/POSITION TEMP    WIND        PRES    VSBY  WAVE
                 AIR SEA DIR/SP/G                  HT/PER
                 (F)     (DEG/KT/KT) (MB)    (MI)  (FT/S)
CALUMET HARBOR    31     290/  9/ 14 1009.6R
MICHIGAN CITY     31     290/ 25/ 28   N/A
BURNS HARBOR      31     310/ 19/ 22 1010.2R
SAINT JOSEPH      32     310/ 17/ 21 1008.8

$$
&&



USA.gov is the U.S. government's official web portal to all federal, state and local government web resources and services.